Year,Month,Day,Hour,Minute,Value (Times are PST for temperature in C)
2012,06,15,00,00,7.80
2012,06,15,00,01,7.80
2012,06,15,00,02,7.80
2012,06,15,00,03,7.80
2012,06,15,00,04,7.80
2012,06,15,00,05,7.80
2012,06,15,00,06,7.80
2012,06,15,00,07,7.70
2012,06,15,00,08,7.70
2012,06,15,00,09,7.70
2012,06,15,00,10,7.70
2012,06,15,00,11,7.60
2012,06,15,00,12,7.60
2012,06,15,00,13,7.50
2012,06,15,00,14,7.50
2012,06,15,00,15,7.50
2012,06,15,00,16,7.40
2012,06,15,00,17,7.40
2012,06,15,00,18,7.40
2012,06,15,00,19,7.40
2012,06,15,00,20,7.40
2012,06,15,00,21,7.40
2012,06,15,00,22,7.40
2012,06,15,00,23,7.40
2012,06,15,00,24,7.40
2012,06,15,00,25,7.30
2012,06,15,00,26,7.30
2012,06,15,00,27,7.30
2012,06,15,00,28,7.30
2012,06,15,00,29,7.30
2012,06,15,00,30,7.30
2012,06,15,00,31,7.30
2012,06,15,00,32,7.30
2012,06,15,00,33,7.30
2012,06,15,00,34,7.30
2012,06,15,00,35,7.30
2012,06,15,00,36,7.30
2012,06,15,00,37,7.30
2012,06,15,00,38,7.30
2012,06,15,00,39,7.30
2012,06,15,00,40,7.30
2012,06,15,00,41,7.30
2012,06,15,00,42,7.30
2012,06,15,00,43,7.30
2012,06,15,00,44,7.30
2012,06,15,00,45,7.30
2012,06,15,00,46,7.30
2012,06,15,00,47,7.30
2012,06,15,00,48,7.30
2012,06,15,00,49,7.30
2012,06,15,00,50,7.30
2012,06,15,00,51,7.30
2012,06,15,00,52,7.20
2012,06,15,00,53,7.20
2012,06,15,00,54,7.20
2012,06,15,00,55,7.10
2012,06,15,00,56,7.10
2012,06,15,00,57,7.10
2012,06,15,00,58,7.10
2012,06,15,00,59,7.20
2012,06,15,01,00,7.20
2012,06,15,01,01,7.10
2012,06,15,01,02,7.10
2012,06,15,01,03,7.10
2012,06,15,01,04,7.10
2012,06,15,01,05,7.10
2012,06,15,01,06,7.10
2012,06,15,01,07,7.00
2012,06,15,01,08,7.00
2012,06,15,01,09,7.00
2012,06,15,01,10,7.10
2012,06,15,01,11,7.10
2012,06,15,01,12,7.10
2012,06,15,01,13,7.00
2012,06,15,01,14,7.00
2012,06,15,01,15,7.00
2012,06,15,01,16,7.00
2012,06,15,01,17,7.00
2012,06,15,01,18,7.00
2012,06,15,01,19,7.00
2012,06,15,01,20,7.00
2012,06,15,01,21,7.00
2012,06,15,01,22,7.00
2012,06,15,01,23,7.00
2012,06,15,01,24,7.10
2012,06,15,01,25,7.10
2012,06,15,01,26,7.10
2012,06,15,01,27,7.20
2012,06,15,01,28,7.20
2012,06,15,01,29,7.30
2012,06,15,01,30,7.30
2012,06,15,01,31,7.30
2012,06,15,01,32,7.30
2012,06,15,01,33,7.30
2012,06,15,01,34,7.30
2012,06,15,01,35,7.30
2012,06,15,01,36,7.30
2012,06,15,01,37,7.30
2012,06,15,01,38,7.30
2012,06,15,01,39,7.30
2012,06,15,01,40,7.30
2012,06,15,01,41,7.30
2012,06,15,01,42,7.30
2012,06,15,01,43,7.30
2012,06,15,01,44,7.30
2012,06,15,01,45,7.30
2012,06,15,01,46,7.20
2012,06,15,01,47,7.20
2012,06,15,01,48,7.20
2012,06,15,01,49,7.20
2012,06,15,01,50,7.20
2012,06,15,01,51,7.20
2012,06,15,01,52,7.20
2012,06,15,01,53,7.20
2012,06,15,01,54,7.20
2012,06,15,01,55,7.20
2012,06,15,01,56,7.30
2012,06,15,01,57,7.30
2012,06,15,01,58,7.30
2012,06,15,01,59,7.30
2012,06,15,02,00,7.30
2012,06,15,02,01,7.30
2012,06,15,02,02,7.30
2012,06,15,02,03,7.30
2012,06,15,02,04,7.30
2012,06,15,02,05,7.20
2012,06,15,02,06,7.20
2012,06,15,02,07,7.20
2012,06,15,02,08,7.20
2012,06,15,02,09,7.20
2012,06,15,02,10,7.20
2012,06,15,02,11,7.20
2012,06,15,02,12,7.30
2012,06,15,02,13,7.30
2012,06,15,02,14,7.30
2012,06,15,02,15,7.30
2012,06,15,02,16,7.20
2012,06,15,02,17,7.20
2012,06,15,02,18,7.20
2012,06,15,02,19,7.10
2012,06,15,02,20,7.10
2012,06,15,02,21,7.00
2012,06,15,02,22,7.00
2012,06,15,02,23,6.90
2012,06,15,02,24,6.90
2012,06,15,02,25,6.90
2012,06,15,02,26,6.90
2012,06,15,02,27,6.90
2012,06,15,02,28,6.90
2012,06,15,02,29,6.90
2012,06,15,02,30,6.90
2012,06,15,02,31,6.90
2012,06,15,02,32,6.90
2012,06,15,02,33,6.80
2012,06,15,02,34,6.80
2012,06,15,02,35,6.80
2012,06,15,02,36,6.70
2012,06,15,02,37,6.70
2012,06,15,02,38,6.70
2012,06,15,02,39,6.70
2012,06,15,02,40,6.70
2012,06,15,02,41,6.70
2012,06,15,02,42,6.60
2012,06,15,02,43,6.60
2012,06,15,02,44,6.60
2012,06,15,02,45,6.60
2012,06,15,02,46,6.60
2012,06,15,02,47,6.60
2012,06,15,02,48,6.60
2012,06,15,02,49,6.60
2012,06,15,02,50,6.60
2012,06,15,02,51,6.60
2012,06,15,02,52,6.60
2012,06,15,02,53,6.60
2012,06,15,02,54,6.50
2012,06,15,02,55,6.40
2012,06,15,02,56,6.40
2012,06,15,02,57,6.40
2012,06,15,02,58,6.40
2012,06,15,02,59,6.40
2012,06,15,03,00,6.40
2012,06,15,03,01,6.40
2012,06,15,03,02,6.50
2012,06,15,03,03,6.60
2012,06,15,03,04,6.60
2012,06,15,03,05,6.60
2012,06,15,03,06,6.60
2012,06,15,03,07,6.60
2012,06,15,03,08,6.60
2012,06,15,03,09,6.60
2012,06,15,03,10,6.60
2012,06,15,03,11,6.60
2012,06,15,03,12,6.60
2012,06,15,03,13,6.60
2012,06,15,03,14,6.50
2012,06,15,03,15,6.40
2012,06,15,03,16,6.40
2012,06,15,03,17,6.40
2012,06,15,03,18,6.40
2012,06,15,03,19,6.30
2012,06,15,03,20,6.30
2012,06,15,03,21,6.30
2012,06,15,03,22,6.30
2012,06,15,03,23,6.30
2012,06,15,03,24,6.40
2012,06,15,03,25,6.40
2012,06,15,03,26,6.40
2012,06,15,03,27,6.40
2012,06,15,03,28,6.40
2012,06,15,03,29,6.40
2012,06,15,03,30,6.30
2012,06,15,03,31,6.30
2012,06,15,03,32,6.20
2012,06,15,03,33,6.20
2012,06,15,03,34,6.10
2012,06,15,03,35,6.10
2012,06,15,03,36,6.10
2012,06,15,03,37,6.10
2012,06,15,03,38,6.20
2012,06,15,03,39,6.20
2012,06,15,03,40,6.30
2012,06,15,03,41,6.40
2012,06,15,03,42,6.40
2012,06,15,03,43,6.40
2012,06,15,03,44,6.40
2012,06,15,03,45,6.40
2012,06,15,03,46,6.40
2012,06,15,03,47,6.40
2012,06,15,03,48,6.40
2012,06,15,03,49,6.40
2012,06,15,03,50,6.30
2012,06,15,03,51,6.30
2012,06,15,03,52,6.20
2012,06,15,03,53,6.20
2012,06,15,03,54,6.20
2012,06,15,03,55,6.20
2012,06,15,03,56,6.20
2012,06,15,03,57,6.20
2012,06,15,03,58,6.20
2012,06,15,03,59,6.20
2012,06,15,04,00,6.20
2012,06,15,04,01,6.20
2012,06,15,04,02,6.20
2012,06,15,04,03,6.20
2012,06,15,04,04,6.20
2012,06,15,04,05,6.20
2012,06,15,04,06,6.20
2012,06,15,04,07,6.10
2012,06,15,04,08,6.10
2012,06,15,04,09,6.10
2012,06,15,04,10,6.10
2012,06,15,04,11,6.10
2012,06,15,04,12,6.10
2012,06,15,04,13,6.20
2012,06,15,04,14,6.20
2012,06,15,04,15,6.20
2012,06,15,04,16,6.20
2012,06,15,04,17,6.20
2012,06,15,04,18,6.20
2012,06,15,04,19,6.20
2012,06,15,04,20,6.20
2012,06,15,04,21,6.20
2012,06,15,04,22,6.20
2012,06,15,04,23,6.20
2012,06,15,04,24,6.20
2012,06,15,04,25,6.20
2012,06,15,04,26,6.20
2012,06,15,04,27,6.20
2012,06,15,04,28,6.30
2012,06,15,04,29,6.30
2012,06,15,04,30,6.30
2012,06,15,04,31,6.30
2012,06,15,04,32,6.30
2012,06,15,04,33,6.40
2012,06,15,04,34,6.40
2012,06,15,04,35,6.40
2012,06,15,04,36,6.40
2012,06,15,04,37,6.40
2012,06,15,04,38,6.40
2012,06,15,04,39,6.40
2012,06,15,04,40,6.40
2012,06,15,04,41,6.40
2012,06,15,04,42,6.40
2012,06,15,04,43,6.40
2012,06,15,04,44,6.40
2012,06,15,04,45,6.40
2012,06,15,04,46,6.40
2012,06,15,04,47,6.40
2012,06,15,04,48,6.40
2012,06,15,04,49,6.40
2012,06,15,04,50,6.40
2012,06,15,04,51,6.40
2012,06,15,04,52,6.40
2012,06,15,04,53,6.40
2012,06,15,04,54,6.30
2012,06,15,04,55,6.20
2012,06,15,04,56,6.20
2012,06,15,04,57,6.20
2012,06,15,04,58,6.10
2012,06,15,04,59,6.10
2012,06,15,05,00,6.20
2012,06,15,05,01,6.20
2012,06,15,05,02,6.20
2012,06,15,05,03,6.20
2012,06,15,05,04,6.30
2012,06,15,05,05,6.30
2012,06,15,05,06,6.30
2012,06,15,05,07,6.30
2012,06,15,05,08,6.30
2012,06,15,05,09,6.20
2012,06,15,05,10,6.20
2012,06,15,05,11,6.20
2012,06,15,05,12,6.20
2012,06,15,05,13,6.20
2012,06,15,05,14,6.30
2012,06,15,05,15,6.30
2012,06,15,05,16,6.30
2012,06,15,05,17,6.30
2012,06,15,05,18,6.30
2012,06,15,05,19,6.40
2012,06,15,05,20,6.40
2012,06,15,05,21,6.40
2012,06,15,05,22,6.40
2012,06,15,05,23,6.50
2012,06,15,05,24,6.60
2012,06,15,05,25,6.60
2012,06,15,05,26,6.60
2012,06,15,05,27,6.60
2012,06,15,05,28,6.60
2012,06,15,05,29,6.60
2012,06,15,05,30,6.60
2012,06,15,05,31,6.70
2012,06,15,05,32,6.70
2012,06,15,05,33,6.70
2012,06,15,05,34,6.70
2012,06,15,05,35,6.70
2012,06,15,05,36,6.70
2012,06,15,05,37,6.70
2012,06,15,05,38,6.80
2012,06,15,05,39,6.80
2012,06,15,05,40,6.80
2012,06,15,05,41,6.80
2012,06,15,05,42,6.80
2012,06,15,05,43,6.80
2012,06,15,05,44,6.90
2012,06,15,05,45,7.00
2012,06,15,05,46,7.10
2012,06,15,05,47,7.20
2012,06,15,05,48,7.20
2012,06,15,05,49,7.30
2012,06,15,05,50,7.30
2012,06,15,05,51,7.30
2012,06,15,05,52,7.30
2012,06,15,05,53,7.30
2012,06,15,05,54,7.30
2012,06,15,05,55,7.30
2012,06,15,05,56,7.20
2012,06,15,05,57,7.20
2012,06,15,05,58,7.10
2012,06,15,05,59,7.10
2012,06,15,06,00,7.00
2012,06,15,06,01,7.00
2012,06,15,06,02,7.00
2012,06,15,06,03,7.00
2012,06,15,06,04,7.00
2012,06,15,06,05,7.00
2012,06,15,06,06,7.10
2012,06,15,06,07,7.10
2012,06,15,06,08,7.10
2012,06,15,06,09,7.20
2012,06,15,06,10,7.20
2012,06,15,06,11,7.30
2012,06,15,06,12,7.30
2012,06,15,06,13,7.40
2012,06,15,06,14,7.50
2012,06,15,06,15,7.50
2012,06,15,06,16,7.60
2012,06,15,06,17,7.70
2012,06,15,06,18,7.70
2012,06,15,06,19,7.80
2012,06,15,06,20,7.90
2012,06,15,06,21,7.90
2012,06,15,06,22,7.90
2012,06,15,06,23,7.90
2012,06,15,06,24,7.90
2012,06,15,06,25,7.90
2012,06,15,06,26,8.00
2012,06,15,06,27,8.00
2012,06,15,06,28,8.10
2012,06,15,06,29,8.20
2012,06,15,06,30,8.20
2012,06,15,06,31,8.20
2012,06,15,06,32,8.20
2012,06,15,06,33,8.20
2012,06,15,06,34,8.20
2012,06,15,06,35,8.30
2012,06,15,06,36,8.40
2012,06,15,06,37,8.50
2012,06,15,06,38,8.60
2012,06,15,06,39,8.70
2012,06,15,06,40,8.70
2012,06,15,06,41,8.80
2012,06,15,06,42,8.90
2012,06,15,06,43,9.10
2012,06,15,06,44,9.20
2012,06,15,06,45,9.30
2012,06,15,06,46,9.40
2012,06,15,06,47,9.40
2012,06,15,06,48,9.50
2012,06,15,06,49,9.50
2012,06,15,06,50,9.50
2012,06,15,06,51,9.60
2012,06,15,06,52,9.70
2012,06,15,06,53,9.80
2012,06,15,06,54,9.90
2012,06,15,06,55,9.90
2012,06,15,06,56,9.90
2012,06,15,06,57,9.90
2012,06,15,06,58,10.00
2012,06,15,06,59,10.10
2012,06,15,07,00,10.20
2012,06,15,07,01,10.30
2012,06,15,07,02,10.40
2012,06,15,07,03,10.50
2012,06,15,07,04,10.60
2012,06,15,07,05,10.60
2012,06,15,07,06,10.70
2012,06,15,07,07,10.80
2012,06,15,07,08,10.90
2012,06,15,07,09,11.00
2012,06,15,07,10,11.20
2012,06,15,07,11,11.30
2012,06,15,07,12,11.40
2012,06,15,07,13,11.40
2012,06,15,07,14,11.60
2012,06,15,07,15,11.60
2012,06,15,07,16,11.70
2012,06,15,07,17,11.80
2012,06,15,07,18,11.80
2012,06,15,07,19,11.80
2012,06,15,07,20,12.00
2012,06,15,07,21,12.10
2012,06,15,07,22,12.20
2012,06,15,07,23,12.30
2012,06,15,07,24,12.30
2012,06,15,07,25,12.30
2012,06,15,07,26,12.30
2012,06,15,07,27,12.40
2012,06,15,07,28,12.40
2012,06,15,07,29,12.50
2012,06,15,07,30,12.50
2012,06,15,07,31,12.50
2012,06,15,07,32,12.30
2012,06,15,07,33,12.30
2012,06,15,07,34,12.30
2012,06,15,07,35,12.20
2012,06,15,07,36,12.10
2012,06,15,07,37,12.10
2012,06,15,07,38,12.00
2012,06,15,07,39,12.00
2012,06,15,07,40,12.00
2012,06,15,07,41,12.00
2012,06,15,07,42,12.00
2012,06,15,07,43,11.90
2012,06,15,07,44,11.90
2012,06,15,07,45,12.00
2012,06,15,07,46,12.10
2012,06,15,07,47,12.20
2012,06,15,07,48,12.20
2012,06,15,07,49,12.30
2012,06,15,07,50,12.30
2012,06,15,07,51,12.30
2012,06,15,07,52,12.30
2012,06,15,07,53,12.30
2012,06,15,07,54,12.30
2012,06,15,07,55,12.20
2012,06,15,07,56,12.20
2012,06,15,07,57,12.30
2012,06,15,07,58,12.30
2012,06,15,07,59,12.30
2012,06,15,08,00,12.30
2012,06,15,08,01,12.30
2012,06,15,08,02,12.30
2012,06,15,08,03,12.30
2012,06,15,08,04,12.30
2012,06,15,08,05,12.30
2012,06,15,08,06,12.40
2012,06,15,08,07,12.40
2012,06,15,08,08,12.50
2012,06,15,08,09,12.50
2012,06,15,08,10,12.60
2012,06,15,08,11,12.60
2012,06,15,08,12,12.60
2012,06,15,08,13,12.70
2012,06,15,08,14,12.80
2012,06,15,08,15,12.80
2012,06,15,08,16,12.90
2012,06,15,08,17,13.00
2012,06,15,08,18,13.10
2012,06,15,08,19,13.10
2012,06,15,08,20,13.10
2012,06,15,08,21,13.10
2012,06,15,08,22,13.10
2012,06,15,08,23,13.20
2012,06,15,08,24,13.20
2012,06,15,08,25,13.20
2012,06,15,08,26,13.20
2012,06,15,08,27,13.20
2012,06,15,08,28,13.30
2012,06,15,08,29,13.30
2012,06,15,08,30,13.30
2012,06,15,08,31,13.40
2012,06,15,08,32,13.50
2012,06,15,08,33,13.50
2012,06,15,08,34,13.40
2012,06,15,08,35,13.40
2012,06,15,08,36,13.30
2012,06,15,08,37,13.30
2012,06,15,08,38,13.30
2012,06,15,08,39,13.40
2012,06,15,08,40,13.50
2012,06,15,08,41,13.60
2012,06,15,08,42,13.60
2012,06,15,08,43,13.60
2012,06,15,08,44,13.60
2012,06,15,08,45,13.60
2012,06,15,08,46,13.60
2012,06,15,08,47,13.60
2012,06,15,08,48,13.70
2012,06,15,08,49,13.70
2012,06,15,08,50,13.80
2012,06,15,08,51,13.90
2012,06,15,08,52,14.00
2012,06,15,08,53,14.10
2012,06,15,08,54,14.20
2012,06,15,08,55,14.20
2012,06,15,08,56,14.20
2012,06,15,08,57,14.20
2012,06,15,08,58,14.30
2012,06,15,08,59,14.30
2012,06,15,09,00,14.30
2012,06,15,09,01,14.40
2012,06,15,09,02,14.50
2012,06,15,09,03,14.50
2012,06,15,09,04,14.50
2012,06,15,09,05,14.50
2012,06,15,09,06,14.50
2012,06,15,09,07,14.70
2012,06,15,09,08,14.70
2012,06,15,09,09,14.80
2012,06,15,09,10,14.80
2012,06,15,09,11,14.80
2012,06,15,09,12,14.70
2012,06,15,09,13,14.70
2012,06,15,09,14,14.80
2012,06,15,09,15,14.80
2012,06,15,09,16,14.90
2012,06,15,09,17,14.90
2012,06,15,09,18,14.90
2012,06,15,09,19,15.00
2012,06,15,09,20,15.10
2012,06,15,09,21,15.20
2012,06,15,09,22,15.30
2012,06,15,09,23,15.30
2012,06,15,09,24,15.40
2012,06,15,09,25,15.40
2012,06,15,09,26,15.60
2012,06,15,09,27,15.70
2012,06,15,09,28,15.80
2012,06,15,09,29,15.90
2012,06,15,09,30,15.90
2012,06,15,09,31,15.90
2012,06,15,09,32,15.80
2012,06,15,09,33,15.60
2012,06,15,09,34,15.50
2012,06,15,09,35,15.50
2012,06,15,09,36,15.40
2012,06,15,09,37,15.30
2012,06,15,09,38,15.30
2012,06,15,09,39,15.30
2012,06,15,09,40,15.30
2012,06,15,09,41,15.30
2012,06,15,09,42,15.30
2012,06,15,09,43,15.10
2012,06,15,09,44,15.10
2012,06,15,09,45,15.10
2012,06,15,09,46,15.10
2012,06,15,09,47,15.10
2012,06,15,09,48,15.20
2012,06,15,09,49,15.20
2012,06,15,09,50,15.30
2012,06,15,09,51,15.30
2012,06,15,09,52,15.30
2012,06,15,09,53,15.40
2012,06,15,09,54,15.40
2012,06,15,09,55,15.40
2012,06,15,09,56,15.30
2012,06,15,09,57,15.40
2012,06,15,09,58,15.50
2012,06,15,09,59,15.50
2012,06,15,10,00,15.60
2012,06,15,10,01,15.80
2012,06,15,10,02,15.90
2012,06,15,10,03,16.00
2012,06,15,10,04,16.10
2012,06,15,10,05,16.10
2012,06,15,10,06,16.00
2012,06,15,10,07,16.10
2012,06,15,10,08,16.10
2012,06,15,10,09,16.10
2012,06,15,10,10,16.10
2012,06,15,10,11,16.00
2012,06,15,10,12,15.90
2012,06,15,10,13,15.90
2012,06,15,10,14,15.80
2012,06,15,10,15,15.80
2012,06,15,10,16,15.70
2012,06,15,10,17,15.60
2012,06,15,10,18,15.50
2012,06,15,10,19,15.60
2012,06,15,10,20,15.80
2012,06,15,10,21,15.80
2012,06,15,10,22,15.80
2012,06,15,10,23,15.80
2012,06,15,10,24,15.80
2012,06,15,10,25,15.80
2012,06,15,10,26,15.80
2012,06,15,10,27,15.80
2012,06,15,10,28,15.80
2012,06,15,10,29,16.00
2012,06,15,10,30,16.10
2012,06,15,10,31,16.00
2012,06,15,10,32,16.00
2012,06,15,10,33,16.10
2012,06,15,10,34,16.30
2012,06,15,10,35,16.30
2012,06,15,10,36,16.30
2012,06,15,10,37,16.20
2012,06,15,10,38,16.00
2012,06,15,10,39,16.00
2012,06,15,10,40,15.90
2012,06,15,10,41,16.00
2012,06,15,10,42,16.10
2012,06,15,10,43,16.10
2012,06,15,10,44,15.90
2012,06,15,10,45,16.10
2012,06,15,10,46,16.00
2012,06,15,10,47,16.00
2012,06,15,10,48,16.10
2012,06,15,10,49,16.10
2012,06,15,10,50,16.20
2012,06,15,10,51,16.30
2012,06,15,10,52,16.30
2012,06,15,10,53,16.30
2012,06,15,10,54,16.40
2012,06,15,10,55,16.50
2012,06,15,10,56,16.50
2012,06,15,10,57,16.40
2012,06,15,10,58,16.30
2012,06,15,10,59,16.20
2012,06,15,11,00,16.10
2012,06,15,11,01,16.20
2012,06,15,11,02,16.30
2012,06,15,11,03,16.30
2012,06,15,11,04,16.40
2012,06,15,11,05,16.30
2012,06,15,11,06,16.40
2012,06,15,11,07,16.60
2012,06,15,11,08,16.80
2012,06,15,11,09,16.90
2012,06,15,11,10,16.90
2012,06,15,11,11,16.90
2012,06,15,11,12,16.90
2012,06,15,11,13,17.00
2012,06,15,11,14,17.00
2012,06,15,11,15,16.90
2012,06,15,11,16,16.80
2012,06,15,11,17,16.70
2012,06,15,11,18,16.70
2012,06,15,11,19,16.60
2012,06,15,11,20,16.70
2012,06,15,11,21,16.90
2012,06,15,11,22,17.00
2012,06,15,11,23,16.90
2012,06,15,11,24,16.90
2012,06,15,11,25,16.80
2012,06,15,11,26,16.70
2012,06,15,11,27,16.70
2012,06,15,11,28,16.70
2012,06,15,11,29,16.80
2012,06,15,11,30,17.00
2012,06,15,11,31,17.00
2012,06,15,11,32,17.00
2012,06,15,11,33,16.70
2012,06,15,11,34,16.70
2012,06,15,11,35,16.60
2012,06,15,11,36,16.60
2012,06,15,11,37,16.50
2012,06,15,11,38,16.50
2012,06,15,11,39,16.60
2012,06,15,11,40,16.70
2012,06,15,11,41,16.70
2012,06,15,11,42,16.70
2012,06,15,11,43,16.80
2012,06,15,11,44,16.90
2012,06,15,11,45,16.90
2012,06,15,11,46,17.00
2012,06,15,11,47,17.00
2012,06,15,11,48,17.10
2012,06,15,11,49,17.30
2012,06,15,11,50,17.30
2012,06,15,11,51,17.50
2012,06,15,11,52,17.60
2012,06,15,11,53,17.70
2012,06,15,11,54,17.70
2012,06,15,11,55,17.70
2012,06,15,11,56,17.70
2012,06,15,11,57,17.70
2012,06,15,11,58,17.70
2012,06,15,11,59,17.70
2012,06,15,12,00,17.80
2012,06,15,12,01,17.90
2012,06,15,12,02,17.90
2012,06,15,12,03,18.10
2012,06,15,12,04,18.10
2012,06,15,12,05,18.00
2012,06,15,12,06,17.90
2012,06,15,12,07,18.00
2012,06,15,12,08,18.10
2012,06,15,12,09,18.10
2012,06,15,12,10,18.20
2012,06,15,12,11,18.20
2012,06,15,12,12,18.20
2012,06,15,12,13,18.30
2012,06,15,12,14,18.40
2012,06,15,12,15,18.40
2012,06,15,12,16,18.50
2012,06,15,12,17,18.50
2012,06,15,12,18,18.50
2012,06,15,12,19,18.50
2012,06,15,12,20,18.50
2012,06,15,12,21,18.50
2012,06,15,12,22,18.50
2012,06,15,12,23,18.40
2012,06,15,12,24,18.40
2012,06,15,12,25,18.50
2012,06,15,12,26,18.50
2012,06,15,12,27,18.60
2012,06,15,12,28,18.60
2012,06,15,12,29,18.60
2012,06,15,12,30,18.60
2012,06,15,12,31,18.60
2012,06,15,12,32,18.70
2012,06,15,12,33,18.80
2012,06,15,12,34,18.90
2012,06,15,12,35,18.90
2012,06,15,12,36,18.90
2012,06,15,12,37,18.90
2012,06,15,12,38,18.90
2012,06,15,12,39,18.90
2012,06,15,12,40,18.80
2012,06,15,12,41,18.80
2012,06,15,12,42,18.80
2012,06,15,12,43,18.80
2012,06,15,12,44,18.70
2012,06,15,12,45,18.60
2012,06,15,12,46,18.50
2012,06,15,12,47,18.30
2012,06,15,12,48,18.10
2012,06,15,12,49,18.10
2012,06,15,12,50,17.90
2012,06,15,12,51,18.00
2012,06,15,12,52,18.10
2012,06,15,12,53,18.10
2012,06,15,12,54,18.20
2012,06,15,12,55,18.40
2012,06,15,12,56,18.70
2012,06,15,12,57,18.90
2012,06,15,12,58,18.90
2012,06,15,12,59,18.90
2012,06,15,13,00,18.90
2012,06,15,13,01,18.90
2012,06,15,13,02,18.90
2012,06,15,13,03,18.90
2012,06,15,13,04,18.90
2012,06,15,13,05,18.90
2012,06,15,13,06,19.10
2012,06,15,13,07,18.90
2012,06,15,13,08,18.90
2012,06,15,13,09,18.80
2012,06,15,13,10,18.60
2012,06,15,13,11,18.60
2012,06,15,13,12,18.50
2012,06,15,13,13,18.50
2012,06,15,13,14,18.50
2012,06,15,13,15,18.70
2012,06,15,13,16,18.80
2012,06,15,13,17,18.80
2012,06,15,13,18,18.70
2012,06,15,13,19,18.70
2012,06,15,13,20,18.70
2012,06,15,13,21,18.60
2012,06,15,13,22,18.60
2012,06,15,13,23,18.60
2012,06,15,13,24,18.60
2012,06,15,13,25,18.70
2012,06,15,13,26,18.70
2012,06,15,13,27,18.70
2012,06,15,13,28,18.70
2012,06,15,13,29,18.60
2012,06,15,13,30,18.60
2012,06,15,13,31,18.60
2012,06,15,13,32,18.70
2012,06,15,13,33,18.90
2012,06,15,13,34,18.90
2012,06,15,13,35,18.90
2012,06,15,13,36,19.00
2012,06,15,13,37,19.10
2012,06,15,13,38,19.10
2012,06,15,13,39,19.00
2012,06,15,13,40,18.90
2012,06,15,13,41,18.70
2012,06,15,13,42,18.60
2012,06,15,13,43,18.60
2012,06,15,13,44,18.60
2012,06,15,13,45,18.50
2012,06,15,13,46,18.50
2012,06,15,13,47,18.60
2012,06,15,13,48,18.60
2012,06,15,13,49,18.60
2012,06,15,13,50,18.60
2012,06,15,13,51,18.70
2012,06,15,13,52,18.70
2012,06,15,13,53,18.70
2012,06,15,13,54,18.70
2012,06,15,13,55,18.70
2012,06,15,13,56,18.60
2012,06,15,13,57,18.60
2012,06,15,13,58,18.50
2012,06,15,13,59,18.40
2012,06,15,14,00,18.50
2012,06,15,14,01,18.60
2012,06,15,14,02,18.70
2012,06,15,14,03,18.70
2012,06,15,14,04,18.60
2012,06,15,14,05,18.60
2012,06,15,14,06,18.50
2012,06,15,14,07,18.50
2012,06,15,14,08,18.60
2012,06,15,14,09,18.60
2012,06,15,14,10,18.60
2012,06,15,14,11,18.70
2012,06,15,14,12,18.70
2012,06,15,14,13,18.70
2012,06,15,14,14,18.80
2012,06,15,14,15,18.80
2012,06,15,14,16,18.80
2012,06,15,14,17,18.70
2012,06,15,14,18,18.60
2012,06,15,14,19,18.50
2012,06,15,14,20,18.40
2012,06,15,14,21,18.30
2012,06,15,14,22,18.30
2012,06,15,14,23,18.30
2012,06,15,14,24,18.20
2012,06,15,14,25,18.20
2012,06,15,14,26,18.20
2012,06,15,14,27,18.20
2012,06,15,14,28,18.20
2012,06,15,14,29,18.20
2012,06,15,14,30,18.30
2012,06,15,14,31,18.30
2012,06,15,14,32,18.20
2012,06,15,14,33,18.20
2012,06,15,14,34,18.20
2012,06,15,14,35,18.20
2012,06,15,14,36,18.30
2012,06,15,14,37,18.30
2012,06,15,14,38,18.50
2012,06,15,14,39,18.60
2012,06,15,14,40,18.60
2012,06,15,14,41,18.70
2012,06,15,14,42,18.80
2012,06,15,14,43,18.70
2012,06,15,14,44,18.60
2012,06,15,14,45,18.60
2012,06,15,14,46,18.70
2012,06,15,14,47,18.90
2012,06,15,14,48,19.10
2012,06,15,14,49,19.20
2012,06,15,14,50,19.30
2012,06,15,14,51,19.20
2012,06,15,14,52,19.20
2012,06,15,14,53,19.30
2012,06,15,14,54,19.40
2012,06,15,14,55,19.30
2012,06,15,14,56,19.30
2012,06,15,14,57,19.30
2012,06,15,14,58,19.20
2012,06,15,14,59,19.10
2012,06,15,15,00,19.10
2012,06,15,15,01,19.00
2012,06,15,15,02,18.90
2012,06,15,15,03,18.90
2012,06,15,15,04,18.90
2012,06,15,15,05,18.90
2012,06,15,15,06,18.90
2012,06,15,15,07,18.90
2012,06,15,15,08,18.90
2012,06,15,15,09,18.90
2012,06,15,15,10,18.90
2012,06,15,15,11,18.90
2012,06,15,15,12,18.90
2012,06,15,15,13,18.90
2012,06,15,15,14,18.90
2012,06,15,15,15,18.90
2012,06,15,15,16,18.90
2012,06,15,15,17,18.80
2012,06,15,15,18,18.80
2012,06,15,15,19,18.70
2012,06,15,15,20,18.60
2012,06,15,15,21,18.50
2012,06,15,15,22,18.40
2012,06,15,15,23,18.30
2012,06,15,15,24,18.30
2012,06,15,15,25,18.30
2012,06,15,15,26,18.30
2012,06,15,15,27,18.30
2012,06,15,15,28,18.30
2012,06,15,15,29,18.20
2012,06,15,15,30,18.20
2012,06,15,15,31,18.20
2012,06,15,15,32,18.20
2012,06,15,15,33,18.20
2012,06,15,15,34,18.20
2012,06,15,15,35,18.20
2012,06,15,15,36,18.20
2012,06,15,15,37,18.20
2012,06,15,15,38,18.20
2012,06,15,15,39,18.20
2012,06,15,15,40,18.20
2012,06,15,15,41,18.20
2012,06,15,15,42,18.20
2012,06,15,15,43,18.20
2012,06,15,15,44,18.20
2012,06,15,15,45,18.30
2012,06,15,15,46,18.30
2012,06,15,15,47,18.40
2012,06,15,15,48,18.40
2012,06,15,15,49,18.40
2012,06,15,15,50,18.50
2012,06,15,15,51,18.50
2012,06,15,15,52,18.50
2012,06,15,15,53,18.50
2012,06,15,15,54,18.50
2012,06,15,15,55,18.50
2012,06,15,15,56,18.40
2012,06,15,15,57,18.40
2012,06,15,15,58,18.40
2012,06,15,15,59,18.40
2012,06,15,16,00,18.50
2012,06,15,16,01,18.50
2012,06,15,16,02,18.50
2012,06,15,16,03,18.60
2012,06,15,16,04,18.60
2012,06,15,16,05,18.70
2012,06,15,16,06,18.80
2012,06,15,16,07,18.80
2012,06,15,16,08,18.80
2012,06,15,16,09,18.70
2012,06,15,16,10,18.60
2012,06,15,16,11,18.50
2012,06,15,16,12,18.50
2012,06,15,16,13,18.50
2012,06,15,16,14,18.60
2012,06,15,16,15,18.70
2012,06,15,16,16,18.70
2012,06,15,16,17,18.70
2012,06,15,16,18,18.60
2012,06,15,16,19,18.50
2012,06,15,16,20,18.40
2012,06,15,16,21,18.40
2012,06,15,16,22,18.30
2012,06,15,16,23,18.30
2012,06,15,16,24,18.20
2012,06,15,16,25,18.20
2012,06,15,16,26,18.20
2012,06,15,16,27,18.20
2012,06,15,16,28,18.20
2012,06,15,16,29,18.20
2012,06,15,16,30,18.20
2012,06,15,16,31,18.20
2012,06,15,16,32,18.20
2012,06,15,16,33,18.20
2012,06,15,16,34,18.10
2012,06,15,16,35,18.10
2012,06,15,16,36,18.00
2012,06,15,16,37,17.90
2012,06,15,16,38,17.90
2012,06,15,16,39,17.90
2012,06,15,16,40,17.80
2012,06,15,16,41,17.70
2012,06,15,16,42,17.60
2012,06,15,16,43,17.60
2012,06,15,16,44,17.70
2012,06,15,16,45,17.70
2012,06,15,16,46,17.70
2012,06,15,16,47,17.70
2012,06,15,16,48,17.70
2012,06,15,16,49,17.80
2012,06,15,16,50,17.80
2012,06,15,16,51,17.90
2012,06,15,16,52,17.90
2012,06,15,16,53,18.10
2012,06,15,16,54,18.20
2012,06,15,16,55,18.20
2012,06,15,16,56,18.20
2012,06,15,16,57,18.20
2012,06,15,16,58,18.20
2012,06,15,16,59,18.30
2012,06,15,17,00,18.40
2012,06,15,17,01,18.40
2012,06,15,17,02,18.50
2012,06,15,17,03,18.50
2012,06,15,17,04,18.50
2012,06,15,17,05,18.60
2012,06,15,17,06,18.60
2012,06,15,17,07,18.60
2012,06,15,17,08,18.70
2012,06,15,17,09,18.70
2012,06,15,17,10,18.80
2012,06,15,17,11,18.80
2012,06,15,17,12,18.80
2012,06,15,17,13,18.90
2012,06,15,17,14,18.90
2012,06,15,17,15,19.00
2012,06,15,17,16,19.10
2012,06,15,17,17,19.10
2012,06,15,17,18,19.10
2012,06,15,17,19,19.10
2012,06,15,17,20,19.00
2012,06,15,17,21,18.90
2012,06,15,17,22,18.90
2012,06,15,17,23,18.90
2012,06,15,17,24,18.90
2012,06,15,17,25,19.10
2012,06,15,17,26,19.10
2012,06,15,17,27,19.20
2012,06,15,17,28,19.30
2012,06,15,17,29,19.40
2012,06,15,17,30,19.50
2012,06,15,17,31,19.60
2012,06,15,17,32,19.60
2012,06,15,17,33,19.70
2012,06,15,17,34,19.60
2012,06,15,17,35,19.60
2012,06,15,17,36,19.60
2012,06,15,17,37,19.60